This is the latest recevied weather packets stored in our database for station/object E24TVS-1. If no packets are shown the sender has not sent any weather packets the latest 10 day(s).
| Time | Temp. | Humidity | Pressure | Rain* | Wind** | Luminosity | Snow |
|---|---|---|---|---|---|---|---|
| 1777826121 | 29.44° C | 65% | 990 hPa | - | - | 0 W/m² | - |
| 1777825499 | 28.89° C | 66% | 991 hPa | - | - | 0 W/m² | - |
| 1777824876 | 29.44° C | 66% | 991 hPa | - | - | 0 W/m² | - |
| 1777824253 | 30° C | 64% | 991 hPa | - | - | 0 W/m² | - |
| 1777823630 | 30.56° C | 66% | 990 hPa | - | - | 0 W/m² | - |
| 1777823008 | 30.56° C | 68% | 990 hPa | - | - | 0 W/m² | - |
| 1777822385 | 31.11° C | 65% | 990 hPa | - | - | 0 W/m² | - |
| 1777821763 | 31.67° C | 62% | 990 hPa | - | - | 0 W/m² | - |
| 1777821140 | 31.67° C | 61% | 990 hPa | - | - | 0 W/m² | - |
| 1777820518 | 31.67° C | 59% | 990 hPa | - | - | 0 W/m² | - |
| 1777819895 | 32.22° C | 58% | 990 hPa | - | - | 0 W/m² | - |
| 1777819272 | 32.22° C | 58% | 989 hPa | - | - | 0 W/m² | - |
| 1777818650 | 32.22° C | 58% | 989 hPa | - | - | 0 W/m² | - |
| 1777818027 | 32.22° C | 58% | 989 hPa | - | - | 0 W/m² | - |
| 1777817405 | 32.78° C | 56% | 988 hPa | - | - | 0 W/m² | - |
| 1777816782 | 33.33° C | 55% | 988 hPa | - | - | 0 W/m² | - |
| 1777816159 | 33.89° C | 53% | 988 hPa | - | - | 0 W/m² | - |
| 1777815537 | 33.89° C | 53% | 987 hPa | - | - | 0 W/m² | - |
| 1777814914 | 33.89° C | 52% | 987 hPa | - | - | 0 W/m² | - |
| 1777814291 | 33.33° C | 53% | 987 hPa | - | - | 0 W/m² | - |
| 1777813669 | 33.33° C | 53% | 987 hPa | - | - | 0 W/m² | - |
| 1777813046 | 33.33° C | 53% | 987 hPa | - | - | 0 W/m² | - |
| 1777812424 | 33.33° C | 53% | 987 hPa | - | - | 0 W/m² | - |
| 1777811801 | 33.89° C | 53% | 986 hPa | - | - | 0 W/m² | - |
| 1777811178 | 33.89° C | 51% | 986 hPa | - | - | 0 W/m² | - |
* Rain since midnight (hover to see other rain measurements)
** Current wind speed in m/s (hover to see current wind gust speed)